Weather History for Litchfield, MN

Change the Weather History Date:

Friday, February 22, 2013

  Actual Average Record
Temperature  
Mean Temperature 22 °F -  
Max Temperature 26 °F 32 °F 53 °F (1961)
Min Temperature 19 °F 13 °F -17 °F (1952)
Degree Days  
Heating Degree Days 42    
Moisture  
Dew Point 20 °F    
Average Humidity 91    
Maximum Humidity 100    
Minimum Humidity 74    
Precipitation  
Precipitation 0.00 in - - ()
Sea Level Pressure  
Sea Level Pressure 29.92 in    
Wind  
Wind Speed 8 mph (North)    
Max Wind Speed 13 mph    
Max Gust Speed 18 mph    
Visibility 7 miles    
Events Snow    
Averages and records for this station are not official NWS values.
T = Trace of Precipitation, MM = Missing Value Source: NWS Daily Summary

Daily Weather History Graph

Daily Weather History Graph

Search for Another Location

Airport:

Trip Planner

Search our weather history database for the weather conditions in past years. The results will help you decide how hot, cold, wet, or windy it might be!

Date:

Astronomy

Feb. 22, 2013 Rise Set
Actual Time 7:07 AM CST 5:56 PM CST
Civil Twilight 6:37 AM CST 6:25 PM CST
Nautical Twilight 6:03 AM CST 7:00 PM CST
Astronomical Twilight 5:29 AM CST 7:34 PM CST
Moon 3:03 PM CST (2/22) 4:58 AM CST (2/22)
Length of Visible Light 11h 48m
Length of Day
10h 48m
Waxing Gibbous, 90% of the Moon is Illuminated
Feb 22
Waxing Gibbous
Feb 25
Full
Mar 4
Last Quarter
Mar 11
New
Mar 19
First Quarter

Hourly Weather History & Observations

Time (CST) Temp. Windchill Dew Point Humidity Pressure Visibility Wind Dir Wind Speed Gust Speed Precip Events Conditions
12:13 AM 21.2 °F 10.9 °F 17.6 °F 86% 30.05 in 10.0 mi NE 9.2 mph 16.1 mph N/A   Mostly Cloudy
12:33 AM 21.2 °F 9.5 °F 17.6 °F 86% 30.04 in 10.0 mi NE 11.5 mph - N/A   Mostly Cloudy
12:53 AM 21.2 °F 9.5 °F 17.6 °F 86% 30.04 in 10.0 mi NE 11.5 mph - N/A   Scattered Clouds
1:13 AM 19.4 °F 6.6 °F 17.6 °F 93% 30.02 in 10.0 mi NE 12.7 mph - N/A   Scattered Clouds
1:33 AM 21.2 °F 9.5 °F 17.6 °F 86% 30.01 in 10.0 mi NE 11.5 mph 18.4 mph N/A   Mostly Cloudy
1:53 AM 21.2 °F 10.1 °F 17.6 °F 86% 30.01 in 10.0 mi NE 10.4 mph - N/A   Mostly Cloudy
2:13 AM 21.2 °F 10.1 °F 19.4 °F 93% 30.00 in 5.0 mi NE 10.4 mph - N/A Snow Light Snow
2:33 AM 21.2 °F 10.1 °F 19.4 °F 93% 30.00 in 3.0 mi NE 10.4 mph - N/A Snow Light Snow
2:53 AM 21.2 °F 10.9 °F 19.4 °F 93% 29.99 in 1.8 mi NE 9.2 mph - N/A Snow Light Snow
3:13 AM 19.4 °F 10.4 °F 19.4 °F 100% 29.98 in 1.2 mi NE 6.9 mph - N/A Snow Light Snow
3:33 AM 19.4 °F 10.4 °F 19.4 °F 100% 29.98 in 1.2 mi NE 6.9 mph - N/A Snow Light Snow
3:53 AM 19.4 °F 10.4 °F 19.4 °F 100% 29.97 in 1.2 mi NE 6.9 mph - N/A Snow Light Snow
4:13 AM 19.4 °F 10.4 °F 19.4 °F 100% 29.96 in 1.5 mi NNE 6.9 mph - N/A Snow Light Snow
4:33 AM 19.4 °F 10.4 °F 19.4 °F 100% 29.96 in 1.2 mi NNE 6.9 mph - N/A Snow Light Snow
4:52 AM 19.4 °F 9.5 °F 19.4 °F 100% 29.96 in 1.2 mi NNE 8.1 mph - N/A Snow Light Snow
5:13 AM 19.4 °F 9.5 °F 19.4 °F 100% 29.96 in 2.5 mi NNE 8.1 mph - N/A Snow Light Snow
5:33 AM 19.4 °F 10.4 °F 19.4 °F 100% 29.96 in 2.5 mi NNE 6.9 mph - N/A Snow Light Snow
5:52 AM 19.4 °F 9.5 °F 19.4 °F 100% 29.95 in 2.5 mi NNE 8.1 mph - N/A Snow Light Snow
6:13 AM 19.4 °F 9.5 °F 19.4 °F 100% 29.94 in 3.0 mi NNE 8.1 mph - N/A Snow Light Snow
6:33 AM 19.4 °F 8.6 °F 19.4 °F 100% 29.94 in 3.0 mi NNE 9.2 mph - N/A Snow Light Snow
6:52 AM 19.4 °F 8.6 °F 19.4 °F 100% 29.94 in 5.0 mi NNE 9.2 mph - N/A Snow Light Snow
7:33 AM 19.4 °F 9.5 °F 19.4 °F 100% 29.93 in 3.0 mi NNE 8.1 mph - N/A Snow Light Snow
7:53 AM 21.2 °F 11.7 °F 19.4 °F 93% 29.93 in 5.0 mi NNE 8.1 mph - N/A Snow Light Snow
8:13 AM 21.2 °F 10.9 °F 19.4 °F 93% 29.93 in 1.8 mi NNE 9.2 mph - N/A Snow Light Snow
8:32 AM 21.2 °F 11.7 °F 19.4 °F 93% 29.93 in 2.5 mi NNE 8.1 mph - N/A Snow Light Snow
8:53 AM 21.2 °F 10.9 °F 19.4 °F 93% 29.93 in 2.5 mi NNE 9.2 mph - N/A Snow Light Snow
9:13 AM 21.2 °F 11.7 °F 19.4 °F 93% 29.92 in 7.0 mi NNE 8.1 mph - N/A Snow Light Snow
9:32 AM 21.2 °F 10.9 °F 19.4 °F 93% 29.92 in 10.0 mi NNE 9.2 mph - N/A Snow Light Snow
9:53 AM 21.2 °F 10.9 °F 19.4 °F 93% 29.92 in 3.0 mi NNE 9.2 mph - N/A Snow Light Snow
10:13 AM 23.0 °F 13.1 °F 19.4 °F 86% 29.91 in 3.0 mi NNE 9.2 mph - N/A Snow Light Snow
10:32 AM 23.0 °F 13.9 °F 19.4 °F 86% 29.91 in 7.0 mi NNE 8.1 mph - N/A Snow Light Snow
10:53 AM 23.0 °F 14.7 °F 21.2 °F 93% 29.91 in 5.0 mi NNE 6.9 mph - N/A Snow Light Snow
11:13 AM 23.0 °F 14.7 °F 21.2 °F 93% 29.90 in 5.0 mi NNE 6.9 mph - N/A Snow Light Snow
11:32 AM 24.8 °F 17.9 °F 21.2 °F 86% 29.90 in 5.0 mi NNE 5.8 mph - N/A Snow Light Snow
11:53 AM 24.8 °F 17.9 °F 21.2 °F 86% 29.89 in 10.0 mi NNE 5.8 mph - N/A Snow Light Snow
12:13 PM 24.8 °F 16.9 °F 21.2 °F 86% 29.89 in 10.0 mi NNE 6.9 mph - N/A   Mostly Cloudy
12:32 PM 24.8 °F 17.9 °F 21.2 °F 86% 29.89 in 10.0 mi NNE 5.8 mph - N/A   Overcast
12:53 PM 24.8 °F 19.1 °F 21.2 °F 86% 29.88 in 10.0 mi NE 4.6 mph - N/A   Overcast
1:13 PM 26.6 °F 21.2 °F 21.2 °F 80% 29.87 in 10.0 mi NNE 4.6 mph - N/A   Overcast
1:32 PM 24.8 °F 19.1 °F 21.2 °F 86% 29.87 in 10.0 mi NNE 4.6 mph - N/A Snow Light Snow
1:53 PM 26.6 °F 20.0 °F 21.2 °F 80% 29.87 in 10.0 mi North 5.8 mph - N/A   Overcast
2:13 PM 26.6 °F 22.6 °F 19.4 °F 74% 29.87 in 10.0 mi NNW 3.5 mph - N/A   Overcast
2:32 PM 26.6 °F 21.2 °F 19.4 °F 74% 29.86 in 10.0 mi WNW 4.6 mph - N/A   Overcast
2:53 PM 26.6 °F 20.0 °F 19.4 °F 74% 29.87 in 10.0 mi NW 5.8 mph - N/A Snow Light Snow
3:12 PM 26.6 °F 19.1 °F 21.2 °F 80% 29.87 in 10.0 mi WNW 6.9 mph - N/A   Overcast
3:33 PM 24.8 °F 16.9 °F 21.2 °F 86% 29.87 in 10.0 mi WNW 6.9 mph - N/A   Overcast
3:53 PM 24.8 °F 16.9 °F 21.2 °F 86% 29.88 in 10.0 mi WNW 6.9 mph - N/A   Overcast
4:12 PM 24.8 °F 15.3 °F 21.2 °F 86% 29.88 in 10.0 mi WNW 9.2 mph - N/A   Overcast
4:33 PM 24.8 °F 17.9 °F 21.2 °F 86% 29.88 in 10.0 mi NW 5.8 mph - N/A   Overcast
4:53 PM 24.8 °F 16.9 °F 21.2 °F 86% 29.89 in 10.0 mi NW 6.9 mph - N/A Snow Light Snow
5:12 PM 24.8 °F 17.9 °F 21.2 °F 86% 29.89 in 7.0 mi NW 5.8 mph - N/A Snow Light Snow
5:33 PM 24.8 °F 17.9 °F 21.2 °F 86% 29.89 in 7.0 mi NW 5.8 mph - N/A Snow Light Snow
5:53 PM 24.8 °F 17.9 °F 21.2 °F 86% 29.89 in 10.0 mi NW 5.8 mph - N/A Snow Light Snow
6:12 PM 24.8 °F 17.9 °F 21.2 °F 86% 29.89 in 5.0 mi NW 5.8 mph - N/A Snow Light Snow
6:33 PM 24.8 °F 17.9 °F 21.2 °F 86% 29.90 in 7.0 mi WNW 5.8 mph - N/A Snow Light Snow
6:53 PM 24.8 °F 17.9 °F 21.2 °F 86% 29.90 in 7.0 mi NW 5.8 mph - N/A Snow Light Snow
7:12 PM 24.8 °F 17.9 °F 21.2 °F 86% 29.90 in 7.0 mi NW 5.8 mph - N/A Snow Light Snow
7:33 PM 23.0 °F - 21.2 °F 93% 29.89 in 10.0 mi Calm Calm - N/A   Overcast
7:53 PM 23.0 °F 17.0 °F 21.2 °F 93% 29.89 in 10.0 mi WNW 4.6 mph - N/A Snow Light Snow
8:12 PM 23.0 °F 15.8 °F 21.2 °F 93% 29.88 in 10.0 mi WNW 5.8 mph - N/A   Overcast
8:33 PM 23.0 °F 15.8 °F 21.2 °F 93% 29.88 in 10.0 mi NW 5.8 mph - N/A Snow Light Snow
8:53 PM 23.0 °F 14.7 °F 21.2 °F 93% 29.87 in 10.0 mi NW 6.9 mph - N/A   Overcast
9:12 PM 23.0 °F 14.7 °F 21.2 °F 93% 29.87 in 10.0 mi WNW 6.9 mph - N/A   Overcast
9:33 PM 21.2 °F 14.9 °F 21.2 °F 100% 29.87 in 10.0 mi WNW 4.6 mph - N/A   Overcast
9:53 PM 21.2 °F 13.6 °F 21.2 °F 100% 29.87 in 10.0 mi West 5.8 mph - N/A   Overcast
10:12 PM 21.2 °F 13.6 °F 19.4 °F 93% 29.87 in 10.0 mi West 5.8 mph - N/A   Overcast
10:33 PM 19.4 °F 11.5 °F 19.4 °F 100% 29.86 in 10.0 mi West 5.8 mph - N/A   Overcast
10:52 PM 19.4 °F 11.5 °F 19.4 °F 100% 29.87 in 10.0 mi West 5.8 mph - N/A   Overcast
11:13 PM 19.4 °F 11.5 °F 19.4 °F 100% 29.87 in 10.0 mi West 5.8 mph - N/A   Overcast
11:33 PM 19.4 °F 10.4 °F 19.4 °F 100% 29.87 in 10.0 mi West 6.9 mph - N/A   Overcast
11:53 PM 19.4 °F 12.8 °F 19.4 °F 100% 29.87 in 10.0 mi West 4.6 mph - N/A   Overcast